ELECTRON R/B (43691 NORAD) Tracking and Keplerian Element Data

This shows tracking and keplerian element data for the satellite.

Feedback or suggestion? Click here.




ElementValue
Catalog43691
NameELECTRON R/B
Epoch Orbit461
Epoch Day344.47305103
Epoch Year2018
RAAN81.6835
Inclination85.0172
Eccentricity0.0123725
Argument of Perigee104.4544
Mean Anonmoly257.0505
Mean Motion15.96291585
Decay Rate0.00574125
L11 43691U 18088B 18344.47305103 .00574125 -14844-5 61411-3 0 9998
L22 43691 85.0172 81.6835 0123725 104.4544 257.0505 15.96291585 4617

Live tracking and technical data element details for ELECTRON R/B (NORAD 43691). ELECTRON R/B can be tracked NOW for your location showing map with azimuth and elevation plus other details from your city location.

Track the satellite on the map from your city or location and see movement details for azimuth, elevation, latitude, longitude, range, height, and movement on the map or in text.







IsCatalogInMostPopularTable: catalog: 43691, numindb: 22
Update: records affected: 1



GetName: 43691 ELECTRON R/B

Hit Count: updated at: Tue, 11 Dec 2018 03:18:14 GMT